| time (UTC) | temp F | wind direction | speed knots | gust knots | rain 1hr in | rain 24hr in | rain mn in | humidity % | barometer mb |
| 20260507134404 | 45 | 117 | 0.9 | 2.6 | 0.00 | 0.78 | 0.00 | 98 | 1009.7 |
| 20260507133900 | 45 | 117 | 0.9 | 2.6 | 0.00 | 0.78 | 0.00 | 99 | 1009.7 |
| 20260507133402 | 45 | 117 | 1.7 | 2.6 | 0.00 | 0.78 | 0.00 | 99 | 1009.7 |
| 20260507132859 | 45 | 117 | 1.7 | 5.2 | 0.00 | 0.78 | 0.00 | 99 | 1009.8 |
| 20260507132356 | 45 | 117 | 1.7 | 5.2 | 0.00 | 0.78 | 0.00 | 100 | 1009.7 |
| 20260507131858 | 46 | 119 | 1.7 | 5.2 | 0.00 | 0.78 | 0.00 | 100 | 1009.7 |
| 20260507131356 | 46 | 89 | 2.6 | 5.2 | 0.00 | 0.78 | 0.00 | 100 | 1009.8 |
| 20260507130854 | 46 | 96 | 2.6 | 5.2 | 0.00 | 0.78 | 0.00 | 100 | 1009.6 |
| 20260507130356 | 45 | 89 | 1.7 | 4.3 | 0.00 | 0.78 | 0.00 | 100 | 1009.6 |
| 20260507125849 | 45 | 129 | 1.7 | 2.6 | 0.00 | 0.78 | 0.00 | 100 | 1009.7 |
| 20260507125619 | 44 | 132 | 0.9 | 2.6 | 0.00 | 0.78 | 0.00 | 100 | 1009.8 |
| 20260507124849 | 44 | 132 | 0.9 | 1.7 | 0.00 | 0.78 | 0.00 | 100 | 1009.9 |
| 20260507124348 | 43 | 132 | 0.9 | 1.7 | 0.00 | 0.78 | 0.00 | 100 | 1009.8 |
| 20260507123849 | 43 | 132 | 0.9 | 1.7 | 0.00 | 0.78 | 0.00 | 100 | 1009.9 |
| 20260507123350 | 43 | 132 | 0.9 | 1.7 | 0.00 | 0.78 | 0.00 | 100 | 1009.8 |
| 20260507122844 | 42 | 132 | 0.9 | 2.6 | 0.00 | 0.78 | 0.00 | 99 | 1009.8 |
| 20260507122343 | 42 | 132 | 1.7 | 2.6 | 0.00 | 0.78 | 0.00 | 99 | 1009.9 |
| 20260507121840 | 43 | 132 | 1.7 | 2.6 | 0.00 | 0.78 | 0.00 | 100 | 1009.8 |
| 20260507121342 | 43 | 132 | 1.7 | 3.5 | 0.00 | 0.78 | 0.00 | 100 | 1009.9 |
| 20260507120840 | 43 | 132 | 1.7 | 3.5 | 0.00 | 0.78 | 0.00 | 100 | 1009.9 |
| 20260507120342 | 43 | 121 | 0.9 | 3.5 | 0.00 | 0.78 | 0.00 | 100 | 1009.9 |
| 20260507115835 | 42 | 171 | 0.0 | 1.7 | 0.00 | 0.78 | 0.00 | 100 | 1009.9 |
| 20260507114829 | 42 | 125 | 0.0 | 0.0 | 0.00 | 0.78 | 0.00 | 100 | 1009.7 |
| 20260507114557 | 41 | 125 | 0.0 | 0.0 | 0.00 | 0.78 | 0.00 | 100 | 1009.6 |
| 20260507114056 | 41 | 125 | 0.0 | 0.0 | 0.00 | 0.78 | 0.00 | 99 | 1009.7 |
| 20260507113324 | 41 | 125 | 0.0 | 0.0 | 0.00 | 0.78 | 0.00 | 99 | 1009.7 |
| 20260507113056 | 41 | 125 | 0.0 | 0.0 | 0.00 | 0.78 | 0.00 | 99 | 1009.8 |
| 20260507112326 | 41 | 125 | 0.0 | 0.0 | 0.00 | 0.78 | 0.00 | 99 | 1009.8 |
| 20260507111825 | 41 | 125 | 0.0 | 0.0 | 0.00 | 0.78 | 0.00 | 99 | 1009.8 |
| 20260507111551 | 41 | 125 | 0.0 | 0.0 | 0.00 | 0.78 | 0.00 | 99 | 1009.8 |
| 20260507110822 | 40 | 125 | 0.9 | 2.6 | 0.00 | 0.78 | 0.00 | 99 | 1009.6 |
| 20260507110320 | 41 | 125 | 0.9 | 2.6 | 0.00 | 0.78 | 0.00 | 99 | 1009.8 |
| 20260507105821 | 41 | 127 | 0.0 | 1.7 | 0.00 | 0.78 | 0.00 | 99 | 1009.8 |
| 20260507105321 | 41 | 127 | 0.0 | 1.7 | 0.00 | 0.78 | 0.00 | 99 | 1009.7 |
| 20260507104822 | 40 | 127 | 0.0 | 0.9 | 0.00 | 0.78 | 0.00 | 99 | 1009.7 |
| 20260507104321 | 40 | 127 | 0.0 | 0.0 | 0.00 | 0.78 | 0.00 | 99 | 1009.7 |
| 20260507103820 | 40 | 127 | 0.0 | 2.6 | 0.00 | 0.78 | 0.00 | 99 | 1009.7 |
| 20260507102821 | 40 | 351 | 0.0 | 0.0 | 0.00 | 0.78 | 0.00 | 99 | 1009.7 |
| 20260507102320 | 40 | 351 | 0.0 | 0.0 | 0.00 | 0.78 | 0.00 | 99 | 1009.6 |
| 20260507101819 | 40 | 351 | 0.0 | 0.0 | 0.00 | 0.78 | 0.00 | 99 | 1009.6 |
| 20260507101318 | 39 | 351 | 0.0 | 0.0 | 0.00 | 0.78 | 0.00 | 99 | 1009.5 |
| 20260507100817 | 39 | 351 | 0.0 | 0.0 | 0.00 | 0.78 | 0.00 | 99 | 1009.5 |
| 20260507100314 | 39 | 351 | 0.0 | 0.0 | 0.00 | 0.78 | 0.00 | 99 | 1009.4 |
| 20260507095812 | 39 | 351 | 0.0 | 0.0 | 0.00 | 0.78 | 0.00 | 99 | 1009.6 |
| 20260507095311 | 39 | 351 | 0.0 | 0.0 | 0.00 | 0.78 | 0.00 | 99 | 1009.7 |
| 20260507094811 | 39 | 351 | 0.0 | 0.0 | 0.00 | 0.78 | 0.00 | 99 | 1009.6 |
| 20260507094310 | 39 | 351 | 0.0 | 0.0 | 0.00 | 0.78 | 0.00 | 99 | 1009.6 |
| 20260507093808 | 39 | 351 | 0.0 | 0.0 | 0.00 | 0.78 | 0.00 | 99 | 1009.6 |
| 20260507093309 | 39 | 351 | 0.0 | 0.0 | 0.00 | 0.78 | 0.00 | 99 | 1009.6 |
| 20260507092802 | 39 | 351 | 0.0 | 0.0 | 0.00 | 0.78 | 0.00 | 99 | 1009.8 |
| 20260507092306 | 39 | 351 | 0.0 | 0.0 | 0.00 | 0.78 | 0.00 | 99 | 1009.7 |
| 20260507091804 | 39 | 351 | 0.0 | 0.0 | 0.00 | 0.78 | 0.00 | 99 | 1009.7 |
| 20260507091302 | 38 | 351 | 0.0 | 0.0 | 0.00 | 0.78 | 0.00 | 99 | 1009.8 |
| 20260507090800 | 38 | 351 | 0.0 | 0.0 | 0.00 | 0.78 | 0.00 | 99 | 1009.8 |
| 20260507090532 | 38 | 351 | 0.0 | 0.0 | 0.00 | 0.78 | 0.00 | 99 | 1009.9 |
| 20260507085756 | 38 | 351 | 0.0 | 0.0 | 0.00 | 0.78 | 0.00 | 99 | 1009.8 |
| 20260507085257 | 38 | 351 | 0.0 | 0.0 | 0.00 | 0.78 | 0.00 | 99 | 1009.7 |
| 20260507085028 | 38 | 351 | 0.0 | 0.0 | 0.00 | 0.78 | 0.00 | 99 | 1009.6 |
| 20260507084256 | 39 | 351 | 0.0 | 0.0 | 0.00 | 0.78 | 0.00 | 99 | 1009.6 |
| 20260507083255 | 39 | 351 | 0.0 | 0.0 | 0.00 | 0.78 | 0.00 | 99 | 1009.9 |
| 20260507082748 | 39 | 351 | 0.0 | 0.0 | 0.00 | 0.78 | 0.00 | 99 | 1009.8 |
| 20260507082518 | 39 | 351 | 0.0 | 0.0 | 0.00 | 0.78 | 0.00 | 99 | 1009.8 |
| 20260507081744 | 39 | 351 | 0.0 | 0.0 | 0.00 | 0.78 | 0.00 | 99 | 1009.7 |
| 20260507081242 | 39 | 351 | 0.0 | 0.0 | 0.00 | 0.78 | 0.00 | 99 | 1009.7 |
| 20260507080741 | 40 | 351 | 0.0 | 0.0 | 0.00 | 0.78 | 0.00 | 99 | 1009.6 |
| 20260507080236 | 40 | 351 | 0.0 | 0.0 | 0.00 | 0.78 | 0.00 | 99 | 1009.6 |
| 20260507075735 | 40 | 351 | 0.0 | 0.0 | 0.00 | 0.78 | 0.00 | 99 | 1009.8 |
| 20260507075232 | 40 | 351 | 0.0 | 0.0 | 0.00 | 0.78 | 0.00 | 99 | 1009.6 |
| 20260507074729 | 40 | 351 | 0.0 | 0.0 | 0.00 | 0.78 | 0.00 | 99 | 1009.5 |
| 20260507074230 | 40 | 351 | 0.0 | 0.0 | 0.00 | 0.78 | 0.00 | 99 | 1009.3 |
| 20260507073727 | 40 | 351 | 0.0 | 0.0 | 0.00 | 0.78 | 0.00 | 99 | 1009.3 |
| 20260507073228 | 41 | 351 | 0.0 | 0.0 | 0.00 | 0.78 | 0.00 | 99 | 1009.3 |
| 20260507072729 | 41 | 351 | 0.0 | 0.0 | 0.00 | 0.78 | 0.00 | 99 | 1009.4 |
| 20260507072226 | 41 | 351 | 0.0 | 0.0 | 0.00 | 0.78 | 0.00 | 99 | 1009.4 |
| 20260507071954 | 41 | 351 | 0.0 | 0.0 | 0.00 | 0.78 | 0.00 | 99 | 1009.3 |
| 20260507071225 | 42 | 351 | 0.0 | 0.0 | 0.00 | 0.78 | 0.00 | 99 | 1009.3 |
| 20260507070950 | 42 | 351 | 0.0 | 0.0 | 0.00 | 0.78 | 0.00 | 99 | 1009.4 |
| 20260507070217 | 42 | 351 | 0.0 | 0.0 | 0.00 | 0.78 | 0.00 | 99 | 1009.4 |
| 20260507065714 | 42 | 351 | 0.0 | 0.0 | 0.00 | 0.78 | 0.00 | 99 | 1009.2 |
| 20260507065211 | 42 | 351 | 0.0 | 0.0 | 0.00 | 0.78 | 0.00 | 99 | 1009.2 |
| 20260507064713 | 42 | 351 | 0.0 | 0.0 | 0.00 | 0.78 | 0.00 | 99 | 1009.2 |
| 20260507064209 | 42 | 351 | 0.0 | 0.0 | 0.00 | 0.78 | 0.00 | 99 | 1009.3 |
| 20260507063708 | 42 | 351 | 0.0 | 0.0 | 0.00 | 0.78 | 0.00 | 99 | 1009.2 |
| 20260507063209 | 42 | 351 | 0.0 | 0.0 | 0.00 | 0.78 | 0.00 | 99 | 1009.1 |
| 20260507062938 | 42 | 351 | 0.0 | 0.0 | 0.00 | 0.78 | 0.00 | 99 | 1009.1 |
| 20260507062206 | 42 | 351 | 0.0 | 0.0 | 0.00 | 0.78 | 0.00 | 99 | 1009.2 |
| 20260507061707 | 42 | 351 | 0.0 | 0.0 | 0.00 | 0.78 | 0.00 | 99 | 1009.3 |
| 20260507061201 | 42 | 351 | 0.0 | 0.9 | 0.00 | 0.78 | 0.00 | 99 | 1009.3 |
| 20260507060659 | 42 | 351 | 0.0 | 0.9 | 0.00 | 0.78 | 0.00 | 99 | 1009.4 |
| 20260507060426 | 42 | 351 | 0.9 | 1.7 | 0.00 | 0.78 | 0.00 | 99 | 1009.6 |
| 20260507055653 | 42 | 351 | 0.9 | 1.7 | 0.00 | 0.78 | 0.00 | 99 | 1009.4 |
| 20260507055156 | 42 | 351 | 0.0 | 1.7 | 0.00 | 0.78 | 0.00 | 98 | 1009.2 |
| 20260507054652 | 42 | 351 | 0.0 | 1.7 | 0.00 | 0.78 | 0.00 | 98 | 1009.4 |
| 20260507054423 | 42 | 351 | 0.0 | 0.9 | 0.00 | 0.78 | 0.00 | 98 | 1009.5 |
| 20260507053650 | 42 | 351 | 0.0 | 1.7 | 0.00 | 0.78 | 0.00 | 98 | 1009.7 |
| 20260507053150 | 42 | 351 | 0.0 | 1.7 | 0.00 | 0.78 | 0.00 | 98 | 1009.5 |
| 20260507052920 | 43 | 351 | 0.0 | 1.7 | 0.00 | 0.78 | 0.00 | 99 | 1009.4 |
| 20260507052419 | 43 | 351 | 0.9 | 1.7 | 0.00 | 0.78 | 0.00 | 98 | 1009.6 |
| 20260507051642 | 43 | 351 | 0.0 | 0.9 | 0.00 | 0.78 | 0.00 | 98 | 1009.6 |
| 20260507051141 | 43 | 351 | 0.0 | 2.6 | 0.00 | 0.78 | 0.00 | 99 | 1009.6 |
| 20260507050638 | 43 | 351 | 0.9 | 2.6 | 0.00 | 0.78 | 0.00 | 99 | 1009.4 |
| 20260507050406 | 43 | 355 | 0.0 | 0.9 | 0.00 | 0.78 | 0.00 | 99 | 1009.3 |
| 20260507045636 | 43 | 355 | 0.0 | 0.9 | 0.00 | 0.78 | 0.00 | 99 | 1009.3 |
| 20260507045130 | 43 | 355 | 0.0 | 0.9 | 0.00 | 0.78 | 0.00 | 99 | 1009.5 |
| 20260507044627 | 44 | 355 | 0.0 | 1.7 | 0.00 | 0.78 | 0.00 | 99 | 1009.5 |
| 20260507044127 | 44 | 355 | 0.9 | 1.7 | 0.00 | 0.78 | 0.00 | 99 | 1009.6 |
| 20260507043630 | 44 | 294 | 0.0 | 1.7 | 0.00 | 0.79 | 0.00 | 99 | 1009.8 |
| 20260507043127 | 44 | 293 | 0.0 | 0.9 | 0.00 | 0.79 | 0.00 | 99 | 1009.5 |
| 20260507042629 | 44 | 293 | 0.0 | 0.9 | 0.00 | 0.79 | 0.00 | 99 | 1009.5 |
| 20260507042127 | 44 | 293 | 0.0 | 0.0 | 0.00 | 0.79 | 0.00 | 99 | 1009.3 |
| 20260507041623 | 44 | 293 | 0.0 | 0.0 | 0.00 | 0.79 | 0.00 | 99 | 1009.2 |
| 20260507041122 | 44 | 293 | 0.0 | 0.0 | 0.00 | 0.79 | 0.00 | 99 | 1009.2 |
| 20260507040619 | 44 | 293 | 0.0 | 0.0 | 0.00 | 0.79 | 0.00 | 99 | 1009.3 |
| 20260507040119 | 45 | 293 | 0.0 | 0.0 | 0.00 | 0.79 | 0.00 | 99 | 1009.2 |
| 20260507035617 | 45 | 293 | 0.0 | 0.0 | 0.00 | 0.79 | 0.79 | 99 | 1009.1 |
| 20260507035117 | 45 | 293 | 0.0 | 0.0 | 0.01 | 0.79 | 0.79 | 99 | 1009.2 |
| 20260507034616 | 44 | 293 | 0.0 | 0.0 | 0.01 | 0.79 | 0.79 | 99 | 1009.4 |
| 20260507034115 | 44 | 293 | 0.0 | 0.0 | 0.01 | 0.79 | 0.79 | 99 | 1009.3 |
| 20260507033613 | 44 | 293 | 0.0 | 0.0 | 0.01 | 0.79 | 0.79 | 99 | 1009.5 |
| 20260507033111 | 44 | 293 | 0.0 | 0.0 | 0.01 | 0.79 | 0.79 | 99 | 1009.5 |
| 20260507032612 | 45 | 293 | 0.0 | 0.0 | 0.01 | 0.79 | 0.79 | 99 | 1009.6 |
| 20260507032116 | 45 | 293 | 0.0 | 0.0 | 0.01 | 0.79 | 0.79 | 99 | 1009.8 |
| 20260507031613 | 45 | 293 | 0.0 | 0.0 | 0.01 | 0.79 | 0.79 | 99 | 1009.7 |
| 20260507031108 | 45 | 293 | 0.0 | 0.0 | 0.01 | 0.79 | 0.79 | 99 | 1009.5 |
| 20260507030838 | 45 | 293 | 0.0 | 0.0 | 0.02 | 0.79 | 0.79 | 99 | 1009.5 |
| 20260507030107 | 45 | 293 | 0.0 | 0.0 | 0.02 | 0.79 | 0.79 | 99 | 1009.6 |
| 20260507025607 | 45 | 293 | 0.0 | 0.0 | 0.02 | 0.79 | 0.79 | 99 | 1009.8 |
| 20260507025339 | 45 | 293 | 0.0 | 0.0 | 0.02 | 0.78 | 0.78 | 99 | 1009.8 |
| 20260507024609 | 45 | 293 | 0.0 | 0.0 | 0.02 | 0.78 | 0.78 | 99 | 1009.8 |
| 20260507024104 | 45 | 293 | 0.0 | 0.0 | 0.02 | 0.78 | 0.78 | 99 | 1009.9 |
| 20260507023603 | 45 | 293 | 0.0 | 0.0 | 0.02 | 0.78 | 0.78 | 99 | 1009.9 |
| 20260507023103 | 45 | 293 | 0.0 | 0.0 | 0.02 | 0.78 | 0.78 | 99 | 1009.8 |
| 20260507022604 | 45 | 293 | 0.0 | 0.0 | 0.03 | 0.78 | 0.78 | 99 | 1009.9 |
| 20260507022103 | 45 | 293 | 0.0 | 0.0 | 0.03 | 0.78 | 0.78 | 99 | 1009.9 |
| 20260507021835 | 45 | 293 | 0.0 | 0.0 | 0.04 | 0.78 | 0.78 | 99 | 1010.0 |
| 20260507021103 | 45 | 293 | 0.0 | 0.0 | 0.04 | 0.78 | 0.78 | 99 | 1009.9 |
| 20260507020605 | 45 | 293 | 0.0 | 0.0 | 0.03 | 0.77 | 0.77 | 99 | 1009.7 |
| 20260507020333 | 45 | 293 | 0.0 | 0.0 | 0.04 | 0.77 | 0.77 | 99 | 1009.9 |
| 20260507015602 | 45 | 293 | 0.0 | 0.0 | 0.04 | 0.77 | 0.77 | 99 | 1009.9 |
| 20260507015333 | 45 | 293 | 0.0 | 0.0 | 0.03 | 0.76 | 0.76 | 99 | 1009.9 |
| 20260507014559 | 45 | 293 | 0.0 | 0.0 | 0.04 | 0.76 | 0.76 | 98 | 1010.0 |
| 20260507014057 | 45 | 293 | 0.0 | 0.0 | 0.04 | 0.76 | 0.76 | 98 | 1009.8 |
| 20260507013558 | 45 | 293 | 0.0 | 0.9 | 0.05 | 0.76 | 0.76 | 98 | 1009.9 |
| 20260507013051 | 45 | 293 | 0.0 | 0.9 | 0.04 | 0.75 | 0.76 | 98 | 1009.9 |
| 20260507012552 | 45 | 293 | 0.0 | 0.9 | 0.05 | 0.75 | 0.75 | 98 | 1009.8 |
| 20260507012051 | 45 | 293 | 0.0 | 2.6 | 0.05 | 0.75 | 0.75 | 98 | 1009.6 |
| 20260507011552 | 45 | 293 | 0.0 | 2.6 | 0.04 | 0.74 | 0.74 | 98 | 1009.8 |
| 20260507011049 | 45 | 30 | 0.0 | 0.9 | 0.04 | 0.74 | 0.74 | 98 | 1009.8 |
| 20260507010550 | 45 | 30 | 0.0 | 0.9 | 0.04 | 0.74 | 0.74 | 98 | 1009.4 |
| 20260507010043 | 45 | 30 | 0.0 | 0.9 | 0.03 | 0.73 | 0.73 | 98 | 1009.2 |
| 20260507005812 | 45 | 30 | 0.0 | 0.9 | 0.03 | 0.73 | 0.73 | 98 | 1009.3 |
| 20260507005041 | 45 | 30 | 0.9 | 1.7 | 0.03 | 0.73 | 0.73 | 98 | 1009.2 |
| 20260507004542 | 45 | 30 | 0.9 | 2.6 | 0.02 | 0.72 | 0.72 | 98 | 1009.1 |
| 20260507004038 | 45 | 30 | 0.9 | 2.6 | 0.02 | 0.72 | 0.72 | 98 | 1009.2 |
| 20260507003539 | 46 | 312 | 0.9 | 2.6 | 0.01 | 0.71 | 0.71 | 98 | 1009.1 |
| 20260507003309 | 46 | 313 | 0.9 | 2.6 | 0.01 | 0.71 | 0.71 | 98 | 1009.0 |
| 20260507002536 | 46 | 271 | 0.9 | 2.6 | 0.00 | 0.70 | 0.70 | 98 | 1008.9 |
| 20260507002037 | 46 | 269 | 0.9 | 2.6 | 0.00 | 0.70 | 0.70 | 98 | 1008.8 |
| 20260507001806 | 46 | 260 | 0.9 | 3.5 | 0.00 | 0.70 | 0.70 | 98 | 1008.7 |
| 20260507001032 | 46 | 350 | 0.9 | 3.5 | 0.00 | 0.70 | 0.70 | 98 | 1008.7 |
| 20260507000533 | 46 | 339 | 0.9 | 3.5 | 0.00 | 0.70 | 0.70 | 98 | 1008.5 |
| 20260507000029 | 46 | 27 | 0.9 | 2.6 | 0.00 | 0.70 | 0.70 | 98 | 1008.5 |
| 20260506235529 | 46 | 27 | 0.0 | 1.7 | 0.00 | 0.70 | 0.70 | 98 | 1008.4 |
| 20260506235257 | 46 | 27 | 0.9 | 2.6 | 0.00 | 0.70 | 0.70 | 98 | 1008.3 |
| 20260506234526 | 46 | 27 | 0.9 | 2.6 | 0.00 | 0.70 | 0.70 | 98 | 1008.3 |
| 20260506234026 | 47 | 111 | 0.0 | 1.7 | 0.00 | 0.70 | 0.70 | 98 | 1008.3 |
| 20260506233526 | 47 | 111 | 0.0 | 1.7 | 0.00 | 0.70 | 0.70 | 99 | 1008.3 |
| 20260506233252 | 47 | 111 | 0.9 | 1.7 | 0.00 | 0.70 | 0.70 | 99 | 1008.2 |
| 20260506232519 | 47 | 111 | 0.0 | 1.7 | 0.00 | 0.70 | 0.70 | 99 | 1008.2 |
| 20260506232019 | 47 | 111 | 0.0 | 1.7 | 0.00 | 0.70 | 0.70 | 99 | 1008.0 |
| 20260506231518 | 47 | 111 | 0.0 | 1.7 | 0.00 | 0.70 | 0.70 | 99 | 1008.0 |
| 20260506231016 | 47 | 111 | 0.0 | 1.7 | 0.00 | 0.70 | 0.70 | 99 | 1007.9 |
| 20260506230518 | 47 | 111 | 0.0 | 1.7 | 0.00 | 0.70 | 0.70 | 99 | 1008.0 |
| 20260506230014 | 47 | 111 | 0.0 | 1.7 | 0.00 | 0.70 | 0.70 | 99 | 1007.9 |
| 20260506225514 | 47 | 111 | 0.9 | 7.8 | 0.00 | 0.70 | 0.70 | 99 | 1007.8 |
| 20260506225015 | 47 | 111 | 0.9 | 7.8 | 0.00 | 0.70 | 0.70 | 99 | 1007.9 |
| 20260506224513 | 47 | 31 | 0.0 | 1.7 | 0.00 | 0.70 | 0.70 | 99 | 1007.8 |
| 20260506224010 | 47 | 31 | 0.0 | 0.0 | 0.00 | 0.70 | 0.70 | 99 | 1007.8 |
| 20260506223007 | 47 | 31 | 0.9 | 3.5 | 0.00 | 0.70 | 0.70 | 99 | 1007.6 |
| 20260506222506 | 47 | 31 | 0.9 | 3.5 | 0.00 | 0.70 | 0.70 | 99 | 1007.6 |
| 20260506222005 | 47 | 93 | 1.7 | 6.1 | 0.00 | 0.70 | 0.70 | 99 | 1007.4 |
| 20260506221504 | 47 | 92 | 1.7 | 6.1 | 0.02 | 0.70 | 0.70 | 98 | 1007.2 |
| 20260506221003 | 47 | 75 | 1.7 | 3.5 | 0.03 | 0.70 | 0.70 | 98 | 1007.2 |
| 20260506220505 | 47 | 88 | 1.7 | 3.5 | 0.04 | 0.70 | 0.70 | 99 | 1007.2 |
| 20260506215958 | 47 | 92 | 0.9 | 3.5 | 0.05 | 0.70 | 0.70 | 98 | 1007.1 |
| 20260506215456 | 48 | 62 | 0.9 | 3.5 | 0.06 | 0.70 | 0.70 | 98 | 1007.1 |
| 20260506214954 | 48 | 64 | 0.9 | 4.3 | 0.10 | 0.70 | 0.70 | 98 | 1007.0 |
| 20260506214452 | 48 | 65 | 1.7 | 6.1 | 0.11 | 0.70 | 0.70 | 98 | 1006.9 |
| 20260506213952 | 49 | 68 | 2.6 | 6.1 | 0.11 | 0.70 | 0.70 | 98 | 1006.9 |
| 20260506213448 | 49 | 29 | 1.7 | 6.1 | 0.12 | 0.70 | 0.70 | 98 | 1006.9 |
| 20260506212947 | 49 | 60 | 1.7 | 7.0 | 0.12 | 0.70 | 0.70 | 98 | 1006.9 |
| 20260506212449 | 50 | 107 | 1.7 | 7.0 | 0.12 | 0.70 | 0.70 | 98 | 1006.8 |
| 20260506211948 | 50 | 90 | 3.5 | 10.4 | 0.12 | 0.70 | 0.70 | 98 | 1006.7 |
| 20260506211446 | 51 | 65 | 3.5 | 10.4 | 0.10 | 0.69 | 0.68 | 98 | 1006.6 |
| 20260506210948 | 51 | 94 | 3.5 | 7.0 | 0.09 | 0.70 | 0.67 | 98 | 1006.4 |
| 20260506210441 | 52 | 132 | 2.6 | 6.1 | 0.08 | 0.70 | 0.66 | 98 | 1006.1 |
| 20260506210213 | 53 | 137 | 2.6 | 6.1 | 0.08 | 0.70 | 0.65 | 98 | 1006.1 |
| 20260506205443 | 53 | 156 | 3.5 | 7.8 | 0.07 | 0.69 | 0.64 | 97 | 1005.9 |
| 20260506204942 | 55 | 125 | 2.6 | 7.8 | 0.03 | 0.65 | 0.60 | 97 | 1006.0 |
| 20260506204443 | 58 | 94 | 1.7 | 6.1 | 0.02 | 0.65 | 0.59 | 99 | 1005.8 |
| 20260506203943 | 59 | 138 | 0.9 | 2.6 | 0.02 | 0.65 | 0.59 | 99 | 1005.8 |
| 20260506203443 | 59 | 105 | 0.9 | 1.7 | 0.01 | 0.66 | 0.58 | 99 | 1005.8 |
| 20260506202938 | 59 | 105 | 0.0 | 1.7 | 0.01 | 0.67 | 0.58 | 99 | 1005.7 |
| 20260506202433 | 59 | 105 | 0.0 | 1.7 | 0.01 | 0.67 | 0.58 | 100 | 1005.8 |
| 20260506201933 | 59 | 105 | 0.0 | 1.7 | 0.02 | 0.67 | 0.58 | 99 | 1005.8 |
| 20260506201704 | 59 | 98 | 0.9 | 3.5 | 0.02 | 0.67 | 0.58 | 99 | 1005.8 |
| 20260506201205 | 59 | 98 | 0.9 | 3.5 | 0.02 | 0.67 | 0.58 | 99 | 1005.9 |
| 20260506200434 | 59 | 151 | 0.9 | 2.6 | 0.02 | 0.67 | 0.58 | 100 | 1005.9 |
| 20260506195935 | 59 | 344 | 0.9 | 2.6 | 0.01 | 0.66 | 0.57 | 100 | 1006.0 |
| 20260506195429 | 59 | 240 | 0.9 | 2.6 | 0.01 | 0.66 | 0.57 | 100 | 1006.0 |
| 20260506194930 | 59 | 5 | 0.9 | 2.6 | 0.01 | 0.66 | 0.57 | 100 | 1006.0 |
| 20260506194429 | 59 | 60 | 0.9 | 2.6 | 0.01 | 0.66 | 0.57 | 100 | 1006.0 |
| 20260506193931 | 59 | 60 | 0.9 | 2.6 | 0.01 | 0.66 | 0.57 | 100 | 1006.1 |
| 20260506193431 | 58 | 136 | 0.9 | 1.7 | 0.02 | 0.66 | 0.57 | 100 | 1006.2 |
| 20260506192930 | 58 | 136 | 0.9 | 1.7 | 0.02 | 0.66 | 0.57 | 100 | 1006.2 |
| 20260506192425 | 58 | 91 | 0.9 | 1.7 | 0.03 | 0.66 | 0.57 | 100 | 1006.3 |
| 20260506191927 | 58 | 91 | 0.9 | 1.7 | 0.03 | 0.65 | 0.56 | 99 | 1006.2 |
| 20260506191425 | 58 | 91 | 0.0 | 1.7 | 0.04 | 0.65 | 0.56 | 99 | 1006.3 |
| 20260506190925 | 58 | 91 | 0.0 | 1.7 | 0.06 | 0.65 | 0.56 | 99 | 1006.4 |
| 20260506190657 | 58 | 91 | 0.9 | 2.6 | 0.07 | 0.65 | 0.56 | 99 | 1006.5 |
| 20260506185926 | 58 | 91 | 0.9 | 2.6 | 0.09 | 0.65 | 0.56 | 99 | 1006.6 |
| 20260506185427 | 58 | 91 | 0.9 | 2.6 | 0.10 | 0.65 | 0.56 | 99 | 1006.7 |
| 20260506185157 | 58 | 302 | 0.9 | 1.7 | 0.11 | 0.65 | 0.56 | 99 | 1006.7 |
| 20260506184424 | 58 | 300 | 0.9 | 1.7 | 0.13 | 0.65 | 0.56 | 99 | 1006.7 |
| 20260506183922 | 57 | 300 | 0.9 | 1.7 | 0.17 | 0.65 | 0.56 | 99 | 1006.7 |
| 20260506183422 | 57 | 300 | 0.9 | 1.7 | 0.24 | 0.64 | 0.55 | 99 | 1006.7 |
| 20260506182920 | 58 | 300 | 0.0 | 1.7 | 0.29 | 0.64 | 0.55 | 99 | 1006.8 |
| 20260506182650 | 57 | 300 | 0.0 | 0.9 | 0.37 | 0.63 | 0.54 | 99 | 1006.8 |
| 20260506182148 | 57 | 300 | 0.0 | 2.6 | 0.42 | 0.62 | 0.53 | 99 | 1006.9 |
| 20260506181648 | 57 | 300 | 0.9 | 2.6 | 0.43 | 0.61 | 0.52 | 99 | 1007.0 |
| 20260506181147 | 58 | 298 | 0.0 | 1.7 | 0.42 | 0.59 | 0.50 | 99 | 1007.0 |
| 20260506180412 | 58 | 298 | 0.9 | 3.5 | 0.41 | 0.58 | 0.49 | 99 | 1007.0 |
| 20260506175911 | 57 | 298 | 1.7 | 3.5 | 0.40 | 0.56 | 0.47 | 99 | 1007.0 |
| 20260506175411 | 57 | 19 | 0.9 | 2.6 | 0.39 | 0.55 | 0.46 | 99 | 1007.1 |
| 20260506174909 | 57 | 19 | 0.9 | 2.6 | 0.38 | 0.54 | 0.45 | 99 | 1007.1 |
| 20260506174410 | 57 | 19 | 0.9 | 2.6 | 0.37 | 0.52 | 0.43 | 99 | 1007.3 |
| 20260506173904 | 57 | 296 | 0.9 | 2.6 | 0.33 | 0.48 | 0.40 | 98 | 1007.6 |
| 20260506173634 | 57 | 296 | 0.9 | 2.6 | 0.25 | 0.40 | 0.31 | 98 | 1007.6 |
| 20260506172903 | 58 | 296 | 1.7 | 3.5 | 0.20 | 0.35 | 0.27 | 98 | 1007.7 |
| 20260506172637 | 58 | 308 | 1.7 | 3.5 | 0.12 | 0.26 | 0.17 | 98 | 1007.6 |
| 20260506171904 | 58 | 269 | 0.9 | 2.6 | 0.06 | 0.20 | 0.12 | 98 | 1007.8 |
| 20260506171634 | 58 | 250 | 0.9 | 1.7 | 0.04 | 0.18 | 0.09 | 98 | 1007.6 |
| 20260506170905 | 58 | 250 | 0.0 | 1.7 | 0.03 | 0.17 | 0.08 | 98 | 1007.6 |
| 20260506170628 | 58 | 250 | 0.0 | 3.5 | 0.03 | 0.17 | 0.08 | 98 | 1007.7 |
| 20260506165857 | 58 | 250 | 0.9 | 3.5 | 0.02 | 0.16 | 0.07 | 98 | 1007.7 |
| 20260506165355 | 58 | 103 | 0.0 | 2.6 | 0.02 | 0.16 | 0.07 | 98 | 1007.8 |
| 20260506165126 | 58 | 230 | 0.0 | 1.7 | 0.01 | 0.15 | 0.06 | 98 | 1007.9 |
| 20260506164355 | 58 | 230 | 0.9 | 2.6 | 0.01 | 0.15 | 0.06 | 99 | 1008.0 |
| 20260506163855 | 57 | 248 | 0.9 | 2.6 | 0.01 | 0.15 | 0.06 | 99 | 1008.0 |
| 20260506163354 | 57 | 253 | 0.9 | 2.6 | 0.02 | 0.15 | 0.06 | 99 | 1008.0 |
| 20260506162851 | 57 | 304 | 0.9 | 2.6 | 0.02 | 0.15 | 0.06 | 99 | 1007.9 |
| 20260506162352 | 57 | 355 | 0.9 | 2.6 | 0.01 | 0.14 | 0.05 | 99 | 1007.9 |
| 20260506161850 | 57 | 355 | 0.0 | 2.6 | 0.01 | 0.14 | 0.05 | 99 | 1008.0 |
| 20260506161348 | 57 | 100 | 0.0 | 0.9 | 0.02 | 0.14 | 0.05 | 99 | 1008.2 |
| 20260506160850 | 57 | 100 | 0.0 | 0.9 | 0.02 | 0.14 | 0.05 | 99 | 1008.3 |
| 20260506160348 | 57 | 100 | 0.0 | 0.9 | 0.02 | 0.14 | 0.05 | 99 | 1008.3 |
| 20260506155845 | 57 | 100 | 0.0 | 0.9 | 0.02 | 0.14 | 0.05 | 99 | 1008.5 |
| 20260506155342 | 56 | 100 | 0.0 | 0.9 | 0.02 | 0.14 | 0.05 | 99 | 1008.6 |
| 20260506155113 | 56 | 100 | 0.0 | 0.9 | 0.03 | 0.14 | 0.05 | 99 | 1008.6 |
| 20260506154614 | 56 | 100 | 0.0 | 0.9 | 0.03 | 0.14 | 0.05 | 99 | 1008.7 |
| 20260506154116 | 56 | 100 | 0.0 | 0.9 | 0.04 | 0.14 | 0.05 | 99 | 1008.8 |
| 20260506153336 | 56 | 100 | 0.0 | 0.9 | 0.03 | 0.13 | 0.04 | 98 | 1009.0 |
| 20260506152836 | 56 | 100 | 0.9 | 0.9 | 0.03 | 0.13 | 0.04 | 98 | 1009.0 |
| 20260506152333 | 56 | 100 | 0.0 | 0.9 | 0.03 | 0.13 | 0.04 | 98 | 1009.1 |
| 20260506151831 | 56 | 100 | 0.0 | 0.9 | 0.03 | 0.13 | 0.04 | 98 | 1009.2 |
| 20260506151603 | 56 | 100 | 0.0 | 0.9 | 0.02 | 0.12 | 0.03 | 98 | 1009.2 |
| 20260506150825 | 56 | 100 | 0.0 | 0.9 | 0.02 | 0.12 | 0.03 | 98 | 1009.3 |
| 20260506150556 | 56 | 100 | 0.0 | 0.9 | 0.02 | 0.12 | 0.03 | 98 | 1009.3 |
| 20260506145821 | 56 | 100 | 0.0 | 0.9 | 0.02 | 0.12 | 0.03 | 98 | 1009.2 |
| 20260506145319 | 56 | 100 | 0.0 | 0.9 | 0.01 | 0.11 | 0.03 | 98 | 1009.4 |
| 20260506144821 | 56 | 100 | 0.0 | 0.9 | 0.01 | 0.11 | 0.02 | 97 | 1009.3 |
| 20260506144313 | 56 | 100 | 0.0 | 0.9 | 0.01 | 0.11 | 0.02 | 98 | 1009.3 |
| 20260506143811 | 56 | 100 | 0.0 | 0.9 | 0.00 | 0.10 | 0.01 | 98 | 1009.3 |
| 20260506143539 | 56 | 100 | 0.0 | 0.9 | 0.00 | 0.10 | 0.01 | 98 | 1009.4 |
| 20260506143038 | 56 | 100 | 0.9 | 1.7 | 0.00 | 0.10 | 0.01 | 98 | 1009.4 |
| 20260506142309 | 56 | 100 | 0.9 | 1.7 | 0.00 | 0.10 | 0.01 | 98 | 1009.2 |
| 20260506141804 | 56 | 100 | 0.0 | 0.9 | 0.00 | 0.10 | 0.01 | 98 | 1009.2 |
| 20260506141302 | 56 | 100 | 0.0 | 0.9 | 0.00 | 0.10 | 0.01 | 99 | 1009.3 |
| 20260506140800 | 56 | 100 | 0.0 | 0.9 | 0.00 | 0.10 | 0.01 | 98 | 1009.4 |
| 20260506140301 | 56 | 100 | 0.9 | 1.7 | 0.00 | 0.10 | 0.01 | 98 | 1009.3 |
| 20260506140031 | 56 | 100 | 0.9 | 1.7 | 0.00 | 0.10 | 0.01 | 98 | 1009.4 |
| 20260506135302 | 56 | 100 | 0.0 | 0.9 | 0.00 | 0.10 | 0.01 | 98 | 1009.3 |
| 20260506134800 | 55 | 100 | 0.0 | 0.9 | 0.00 | 0.10 | 0.01 | 98 | 1009.2 |